Location: N�rnberg
(49.4471°N, 11.0632°E)
Time: 10:49:54
(UTC+01:00)

Tiangong - Pass Details

Date: 16 February 2026
Orbit: 381 x 391 km, 41.5° (Epoch: 7 March)

Event Time Altitude Azimuth Distance (km) Brightness Sun altitude
Rises 18:32:44 0° 244° (WSW) 2,254 3.3 -9.7°
Reaches altitude 10° 18:35:10 10° 226° (SW) 1,399 1.5 -10.1°
Maximum altitude 18:37:30 19° 178° (S) 979 0.0 -10.4°
Drops below altitude 10° 18:39:50 10° 130° (SE) 1,396 0.3 -10.8°
Enters shadow 18:39:56 10° 129° (SE) 1,424 0.3 -10.8°
